Weather Service Report


566 
ASUS42 KFFC 310203
RWRGA 
WEATHER ROUNDUP FOR GEORGIA
NATIONAL WEATHER SERVICE PEACHTREE CITY GA
1000 PM EDT MON MAY 30 2016

NOTE: "FAIR" INDICATES FEW OR NO CLOUDS BELOW 12,000 FEET WITH NO
SIGNIFICANT WEATHER AND/OR OBSTRUCTIONS TO VISIBILITY. 

* = USE WITH CAUTION. THE STATIONS MARKED WITH AN ASTERISK MAY NOT
REPORT WEATHER SUCH AS PRECIPITATION, FOG, OR THUNDER AND ARE NOT 
QUALITY CONTROLLED BY NWS.

THE REMARK "TC" DENOTES TEMPERATURE READING IN DEGREES CELSIUS.

GAZ001>058-310300-
NORTH GEORGIA
  
CITY           SKY/WX    TMP DP  RH WIND       PRES   REMARKS
ATLANTA        MOCLDY    80  60  50 NW6       29.95R                  
ATHENS         CLEAR     74  65  73 E3        29.94R                  
CHAMBLEE       PTCLDY    77  60  55 N3        29.95R                  
ROME           PTCLDY    73  63  70 CALM      29.95R                  
WEST ATLANTA   CLEAR     75  62  64 CALM      29.95R                  
GAINESVILLE    CLEAR     77  62  59 CALM      29.99R                  
CARTERSVILLE   CLEAR     67  66  97 CALM      29.96R                  

  
CITY           SKY/WX    TMP DP  RH WIND       PRES   REMARKS
DALTON*        CLEAR     70  70 100 CALM      29.95R                  
KENNESAW*      PTCLDY    75  61  60 CALM      29.92R                  
CANTON*        CLEAR     77  52  41 CALM      29.98R                  
BLAIRSVILLE*     N/A    N/A N/A N/A MISG      30.02R                  
$$

GAZ059>098-102>109-310300-
CENTRAL GEORGIA
  
CITY           SKY/WX    TMP DP  RH WIND       PRES   REMARKS
AUGUSTA-BUSH   PTCLDY    72  67  84 CALM      29.90R                  
AUGUSTA-DANIEL PTCLDY    82  63  52 N5        29.93R                  
COLUMBUS       CLEAR     82  66  58 NW3       29.92R                  
MACON          CLEAR     76  69  79 CALM      29.92R                  
ROBINS AFB     CLEAR     76  69  79 SE2       29.91R                  

  
CITY           SKY/WX    TMP DP  RH WIND       PRES   REMARKS
LAGRANGE*      CLEAR     76  67  72 CALM      29.95R                  
SYLVANIA*      PTCLDY    76  71  84 CALM      29.93R                  
MILLEDGEVILLE* CLEAR     77  70  78 CALM      29.92R                  
$$

GAZ099>101-110>166-310300-
SOUTH GEORGIA
  
CITY           SKY/WX    TMP DP  RH WIND       PRES   REMARKS
SAVANNAH       CLOUDY    77  70  79 E8        29.92R                  
VALDOSTA       CLEAR     74  70  87 S5        29.94R                  
ALMA           CLEAR     72  67  84 CALM      29.92R                  
ST SIMONS      CLEAR     79  72  79 S8        29.93R                  
FT STEWART     CLEAR     74  67  79 CALM      29.90R                  
ALBANY         CLEAR     79  63  57 CALM      29.93R                  
HUNTER AFB     PTCLDY    76  72  87 VRB5      29.90R                  
BRUNSWICK      CLEAR     84  73  70 SE7       29.93S HX  91           

  
CITY           SKY/WX    TMP DP  RH WIND       PRES   REMARKS
BAINBRIDGE*    CLOUDY    79  66  65 W6        29.93S                  
MOULTRIE*      PTCLDY    81  66  61 S3        29.94R                  
VIDALIA*       CLEAR     79  64  61 CALM      29.92R                  
WAYCROSS*      CLEAR     75  66  72 CALM      29.93R                  
DOUGLAS*       CLEAR     79  64  61 CALM      29.94R                  
$$
  

Return to Home page


Western Regional Climate Center, wrcc@dri.edu